Flag for Canada Weather past 2 weeks in Maple Ridge, British Columbia, Canada

Now
64 °F

Mild.


Feels Like: 64 °F
Forecast: 55 / 72 °F
Wind: 2 mph from Southeast

Location: P. Meadows Coastal Station

Current Time: Aug 20, 2014 at 12:27:44 PM

Latest Report: Aug 20, 2014 at 11:00 AM


Visibility: N/A

Pressure: 29.95 "Hg

Humidity: 71%

Dew point: 54 °F

Location of Maple RidgeLocation

Historic Weather in Maple Ridge — Graph

°F

Maple Ridge temperature yesterday

Maximum temperature yesterday: 80 °F (at 6:00 PM)
Minimum temperature yesterday: 60 °F (at 5:00 AM)
Average temperature yesterday: 69 °F

Past Weeks' High & Low Weather Summary

 TemperatureHumidityPressure
High91 °F (Aug 11, 4:00 PM)100% (Aug 17, 1:00 AM)30.16 "Hg (Aug 17, 1:00 AM)
Low54 °F (Aug 9, 4:00 AM)31% (Aug 10, 5:00 PM)29.75 "Hg (Aug 19, 7:00 PM)
Average68 °F75%30.00 "Hg
* Reported Aug 5 11:00 AM — Aug 20 11:00 AM, Maple Ridge, Weather by CustomWeather, © 2014

Note: Actual official high and low records may vary slightly from our data, if they occured in-between our weather recording intervals... More about our weather records

Advertising

Maple Ridge weather history for previous 24 hours

 ConditionsComfort  
Time TempWeatherWind HumidityBarometerVisibility
11:00 AM
Aug 20
64 °FMild.2 mph71%29.95 "HgN/A
10:00 AM64 °FMild.2 mph70%29.94 "HgN/A
9:00 AM62 °FCool.3 mph74%29.93 "HgN/A
8:00 AM61 °FCool.3 mph76%29.91 "HgN/A
7:00 AM60 °FCool.3 mph78%29.90 "HgN/A
6:00 AM60 °FCool.3 mph79%29.88 "HgN/A
5:00 AM60 °FCool.3 mph76%29.85 "HgN/A
4:00 AM61 °FCool.5 mph75%29.85 "HgN/A
3:00 AM62 °FCool.2 mph77%29.83 "HgN/A
2:00 AM62 °FCool.2 mph79%29.81 "HgN/A
1:00 AM62 °FCool.1 mph87%29.81 "HgN/A
12:00 AM63 °FMild.2 mph84%29.79 "HgN/A
11:00 PM
Aug 19
64 °FMild.2 mph83%29.78 "HgN/A
10:00 PM67 °FMild.2 mph76%29.77 "HgN/A
9:00 PM70 °FMild.1 mph69%29.76 "HgN/A
8:00 PM72 °FMild.3 mph63%29.75 "HgN/A
7:00 PM76 °FMild.5 mph51%29.75 "HgN/A
6:00 PM80 °FWarm.3 mph52%29.75 "HgN/A
5:00 PM80 °FWarm.3 mph50%29.76 "HgN/A
4:00 PM79 °FWarm.3 mph50%29.78 "HgN/A
3:00 PM77 °FWarm.2 mph60%29.80 "HgN/A
2:00 PM76 °FMild.2 mph62%29.82 "HgN/A
1:00 PM72 °FMild.5 mph72%29.82 "HgN/A
12:00 PM70 °FMild.3 mph77%29.82 "HgN/A
Weather by CustomWeather, © 2014

See weather overviewHow to use our weather pages